Weather History for KDVK - March, 2013

Change the Weather History Date:

Tuesday, March 12, 2013

  Actual Average (KLEX) Record (KLEX)
Temperature  
Mean Temperature 42 °F 44 °F  
Max Temperature 50 °F 54 °F 77 °F (1911)
Min Temperature 33 °F 35 °F 9 °F (1998)
Degree Days  
Heating Degree Days 24 21  
Month to date heating degree days 270  
Since 1 July heating degree days 3841  
Cooling Degree Days 0 0  
Month to date cooling degree days 0  
Year to date cooling degree days 0  
Moisture  
Dew Point 30 °F    
Average Humidity 71    
Maximum Humidity 93    
Minimum Humidity 47    
Precipitation  
Precipitation 0.00 in 0.13 in 2.04 in (1975)
Month to date precipitation 1.50  
Year to date precipitation 7.90  
Snow  
Snow 0.00 in 0.10 in 1.00 in (2005)
Month to date snowfall 0.7  
Since 1 July snowfall 12.0  
Snow Depth -    
Sea Level Pressure  
Sea Level Pressure 30.02 in    
Wind  
Wind Speed 8 mph (West)    
Max Wind Speed 13 mph    
Max Gust Speed 21 mph    
Visibility 10 miles    
Events      
T = Trace of Precipitation, MM = Missing Value Source: NWS Daily Summary

Daily Weather History Graph

Daily Weather History Graph

Search for Another Location

Airport or City:

Trip Planner

Search our weather history database for the weather conditions in past years. The results will help you decide how hot, cold, wet, or windy it might be!

Date:

Astronomy

Mar. 12, 2013 Rise Set
Actual Time 7:54 AM EDT 7:43 PM EDT
Civil Twilight 7:28 AM EDT 8:09 PM EDT
Nautical Twilight 6:57 AM EDT 8:40 PM EDT
Astronomical Twilight 6:27 AM EDT 9:10 PM EDT
Moon 8:02 AM EDT (3/12) 8:55 PM EDT (3/12)
Length of Visible Light 12h 41m
Length of Day
11h 49m
New Moon, 1% of the Moon is Illuminated
Mar 12
New Moon
Mar 19
First Quarter
Mar 27
Full
Apr 3
Last Quarter
Apr 10
New

Hourly Weather History & Observations

Time (EDT) Temp. Windchill Dew Point Humidity Pressure Visibility Wind Dir Wind Speed Gust Speed Precip Events Conditions
12:15 AM 37.4 °F 33.8 °F 32.0 °F 81% 29.93 in 10.0 mi West 4.6 mph - N/A   Overcast
12:35 AM 37.4 °F 31.4 °F 32.0 °F 81% 29.93 in 10.0 mi West 8.1 mph - N/A   Overcast
12:55 AM 37.4 °F 31.4 °F 32.0 °F 81% 29.93 in 10.0 mi West 8.1 mph - N/A   Overcast
1:15 AM 37.4 °F 31.4 °F 32.0 °F 81% 29.93 in 10.0 mi West 8.1 mph - N/A   Overcast
1:35 AM 35.6 °F 30.7 °F 32.0 °F 87% 29.93 in 10.0 mi West 5.8 mph - N/A   Overcast
1:55 AM 35.6 °F 28.0 °F 32.0 °F 87% 29.93 in 10.0 mi West 10.4 mph - N/A   Overcast
2:15 AM 35.6 °F 29.2 °F 32.0 °F 87% 29.93 in 10.0 mi WNW 8.1 mph - N/A   Overcast
2:35 AM 35.6 °F 27.5 °F 32.0 °F 87% 29.94 in 10.0 mi West 11.5 mph 17.3 mph N/A   Overcast
2:55 AM 35.6 °F 29.2 °F 32.0 °F 87% 29.95 in 10.0 mi WNW 8.1 mph - N/A   Overcast
3:15 AM 35.6 °F 28.6 °F 32.0 °F 87% 29.95 in 10.0 mi NW 9.2 mph - N/A   Overcast
3:35 AM 33.8 °F 26.4 °F 32.0 °F 93% 29.95 in 10.0 mi NW 9.2 mph 18.4 mph N/A   Overcast
3:55 AM 33.8 °F 25.3 °F 30.2 °F 87% 29.95 in 10.0 mi WNW 11.5 mph 16.1 mph N/A   Overcast
4:15 AM 33.8 °F 26.4 °F 30.2 °F 87% 29.95 in 10.0 mi WNW 9.2 mph - N/A   Overcast
4:35 AM 33.8 °F 26.4 °F 30.2 °F 87% 29.95 in 10.0 mi WNW 9.2 mph - N/A   Overcast
4:55 AM 33.8 °F 25.8 °F 30.2 °F 87% 29.95 in 10.0 mi NW 10.4 mph 17.3 mph N/A   Overcast
5:15 AM 33.8 °F 26.4 °F 30.2 °F 87% 29.95 in 10.0 mi WNW 9.2 mph - N/A   Overcast
5:35 AM 33.8 °F 27.7 °F 30.2 °F 87% 29.95 in 10.0 mi WNW 6.9 mph - N/A   Overcast
5:55 AM 33.8 °F 28.6 °F 30.2 °F 87% 29.97 in 10.0 mi WNW 5.8 mph - N/A   Overcast
6:15 AM 33.8 °F 27.7 °F 30.2 °F 87% 29.98 in 10.0 mi WNW 6.9 mph - N/A   Overcast
6:35 AM 33.8 °F 28.6 °F 28.4 °F 81% 29.99 in 10.0 mi WNW 5.8 mph - N/A   Overcast
6:55 AM 33.8 °F 27.0 °F 28.4 °F 81% 29.99 in 10.0 mi WNW 8.1 mph - N/A   Overcast
7:15 AM 33.8 °F 28.6 °F 30.2 °F 87% 30.00 in 10.0 mi NW 5.8 mph - N/A   Overcast
7:35 AM 33.8 °F 28.6 °F 30.2 °F 87% 30.00 in 10.0 mi WNW 5.8 mph - N/A   Overcast
7:55 AM 33.8 °F 27.7 °F 30.2 °F 87% 30.00 in 10.0 mi WNW 6.9 mph - N/A   Overcast
8:15 AM 33.8 °F 28.6 °F 30.2 °F 87% 30.01 in 10.0 mi WNW 5.8 mph - N/A   Overcast
8:35 AM 33.8 °F 28.6 °F 30.2 °F 87% 30.02 in 10.0 mi WNW 5.8 mph - N/A   Overcast
8:55 AM 33.8 °F 29.6 °F 30.2 °F 87% 30.02 in 10.0 mi NW 4.6 mph - N/A   Overcast
9:15 AM 33.8 °F 27.7 °F 30.2 °F 87% 30.03 in 10.0 mi WNW 6.9 mph - N/A   Overcast
9:35 AM 33.8 °F 28.6 °F 30.2 °F 87% 30.04 in 10.0 mi NW 5.8 mph - N/A   Overcast
9:55 AM 33.8 °F 29.6 °F 30.2 °F 87% 30.03 in 10.0 mi NW 4.6 mph - N/A   Overcast
10:15 AM 33.8 °F 28.6 °F 30.2 °F 87% 30.05 in 10.0 mi NW 5.8 mph - N/A   Overcast
10:35 AM 33.8 °F 27.0 °F 30.2 °F 87% 30.05 in 10.0 mi NW 8.1 mph - N/A   Overcast
10:55 AM 33.8 °F 29.6 °F 30.2 °F 87% 30.06 in 10.0 mi West 4.6 mph - N/A   Overcast
11:15 AM 37.4 °F 32.1 °F 30.2 °F 75% 30.06 in 10.0 mi WSW 6.9 mph - N/A   Overcast
11:35 AM 37.4 °F 29.8 °F 30.2 °F 75% 30.06 in 10.0 mi West 11.5 mph - N/A   Overcast
11:55 AM 37.4 °F 31.4 °F 28.4 °F 70% 30.07 in 10.0 mi WSW 8.1 mph - N/A   Overcast
12:15 PM 41.0 °F 35.2 °F 30.2 °F 65% 30.06 in 10.0 mi WSW 9.2 mph - N/A   Overcast
12:35 PM 39.2 °F 33.6 °F 28.4 °F 65% 30.06 in 10.0 mi West 8.1 mph - N/A   Scattered Clouds
12:55 PM 37.4 °F 32.8 °F 28.4 °F 70% 30.06 in 10.0 mi West 5.8 mph - N/A   Scattered Clouds
1:15 PM 42.8 °F 38.0 °F 30.2 °F 61% 30.06 in 10.0 mi West 8.1 mph - N/A   Mostly Cloudy
1:35 PM 42.8 °F 41.1 °F 30.2 °F 61% 30.06 in 10.0 mi SW 3.5 mph - N/A   Scattered Clouds
1:55 PM 42.8 °F 37.5 °F 28.4 °F 57% 30.05 in 10.0 mi West 9.2 mph - N/A   Mostly Cloudy
2:15 PM 42.8 °F 37.5 °F 28.4 °F 57% 30.05 in 10.0 mi West 9.2 mph - N/A   Scattered Clouds
2:35 PM 44.6 °F 38.8 °F 30.2 °F 57% 30.05 in 10.0 mi West 11.5 mph 17.3 mph N/A   Scattered Clouds
2:55 PM 44.6 °F 38.8 °F 30.2 °F 57% 30.04 in 10.0 mi West 11.5 mph - N/A   Scattered Clouds
3:15 PM 44.6 °F 38.8 °F 30.2 °F 57% 30.04 in 10.0 mi West 11.5 mph 16.1 mph N/A   Scattered Clouds
3:35 PM 44.6 °F 40.2 °F 30.2 °F 57% 30.03 in 10.0 mi West 8.1 mph - N/A   Mostly Cloudy
3:55 PM 46.4 °F 41.5 °F 28.4 °F 50% 30.02 in 10.0 mi WSW 10.4 mph 16.1 mph N/A   Scattered Clouds
4:15 PM 46.4 °F 41.1 °F 30.2 °F 53% 30.03 in 10.0 mi West 11.5 mph 16.1 mph N/A   Scattered Clouds
4:35 PM 48.2 °F - 30.2 °F 50% 30.03 in 10.0 mi West 9.2 mph 18.4 mph N/A   Mostly Cloudy
4:55 PM 50.0 °F - 32.0 °F 50% 30.03 in 10.0 mi West 12.7 mph - N/A   Mostly Cloudy
5:15 PM 50.0 °F - 32.0 °F 50% 30.03 in 10.0 mi West 11.5 mph 17.3 mph N/A   Mostly Cloudy
5:35 PM 48.2 °F - 32.0 °F 54% 30.03 in 10.0 mi West 10.4 mph - N/A   Mostly Cloudy
5:55 PM 50.0 °F - 30.2 °F 47% 30.02 in 10.0 mi West 10.4 mph 20.7 mph N/A   Mostly Cloudy
6:15 PM 48.2 °F - 30.2 °F 50% 30.02 in 10.0 mi West 10.4 mph 17.3 mph N/A   Scattered Clouds
6:35 PM 46.4 °F 41.5 °F 30.2 °F 53% 30.02 in 10.0 mi West 10.4 mph - N/A   Scattered Clouds
6:55 PM 46.4 °F 41.5 °F 30.2 °F 53% 30.03 in 10.0 mi WNW 10.4 mph - N/A   Scattered Clouds
7:15 PM 46.4 °F 41.9 °F 30.2 °F 53% 30.03 in 10.0 mi WNW 9.2 mph - N/A   Clear
7:35 PM 44.6 °F 40.2 °F 30.2 °F 57% 30.03 in 10.0 mi West 8.1 mph - N/A   Clear
7:55 PM 42.8 °F 38.6 °F 30.2 °F 61% 30.04 in 10.0 mi West 6.9 mph - N/A   Clear
8:15 PM 42.8 °F 39.3 °F 30.2 °F 61% 30.04 in 10.0 mi West 5.8 mph - N/A   Clear
8:35 PM 42.8 °F 40.1 °F 28.4 °F 57% 30.05 in 10.0 mi WNW 4.6 mph - N/A   Clear
8:55 PM 42.8 °F 38.6 °F 28.4 °F 57% 30.05 in 10.0 mi West 6.9 mph - N/A   Clear
9:15 PM 41.0 °F 35.8 °F 28.4 °F 61% 30.06 in 10.0 mi West 8.1 mph - N/A   Clear
9:35 PM 41.0 °F 35.2 °F 28.4 °F 61% 30.07 in 10.0 mi West 9.2 mph - N/A   Clear
9:55 PM 41.0 °F 33.9 °F 26.6 °F 57% 30.07 in 10.0 mi West 12.7 mph 18.4 mph N/A   Clear
10:15 PM 41.0 °F 34.3 °F 28.4 °F 61% 30.08 in 10.0 mi West 11.5 mph 17.3 mph N/A   Clear
10:35 PM 41.0 °F 35.8 °F 26.6 °F 57% 30.08 in 10.0 mi West 8.1 mph 16.1 mph N/A   Clear
10:55 PM 41.0 °F 34.7 °F 24.8 °F 53% 30.09 in 10.0 mi West 10.4 mph - N/A   Clear
11:15 PM 39.2 °F 34.2 °F 24.8 °F 56% 30.09 in 10.0 mi West 6.9 mph - N/A   Clear
11:35 PM 37.4 °F 32.8 °F 26.6 °F 65% 30.09 in 10.0 mi WSW 5.8 mph - N/A   Clear
11:55 PM 35.6 °F 31.7 °F 26.6 °F 70% 30.09 in 10.0 mi WSW 4.6 mph - N/A   Clear